This is the latest recevied weather packets stored in our database for station/object YM2KA-13. If no packets are shown the sender has not sent any weather packets the latest 10 day(s).
| Time | Temp. | Humidity | Pressure | Rain* | Wind** | Luminosity | Snow |
|---|---|---|---|---|---|---|---|
| 1787833550 | 30.56° C | 27% | 1006.8 hPa | 0 mm | - | - | - |
| 1787833378 | 31.11° C | 27% | 1006.8 hPa | 0 mm | - | - | - |
| 1787832952 | 30.56° C | 28% | 1006.8 hPa | 0 mm | - | - | - |
| 1787832475 | 30.56° C | 28% | 1006.8 hPa | 0 mm | - | - | - |
| 1787832352 | 30.56° C | 28% | 1006.8 hPa | 0 mm | - | - | - |
| 1787831754 | 30.56° C | 28% | 1006.9 hPa | 0 mm | - | - | - |
| 1787831581 | 30.56° C | 28% | 1006.9 hPa | 0 mm | - | - | - |
| 1787831155 | 30.56° C | 28% | 1007 hPa | 0 mm | - | - | - |
| 1787830678 | 30.56° C | 28% | 1007 hPa | 0 mm | - | - | - |
| 1787830555 | 30.56° C | 26% | 1007.1 hPa | 0 mm | - | - | - |
| 1787829947 | 30.56° C | 28% | 1007.2 hPa | 0 mm | - | - | - |
| 1787829775 | 30.56° C | 28% | 1007.2 hPa | 0 mm | - | - | - |
| 1787829348 | 30.56° C | 28% | 1007.2 hPa | 0 mm | - | - | - |
| 1787828881 | 30.56° C | 28% | 1007.2 hPa | 0 mm | - | - | - |
| 1787828748 | 30.56° C | 27% | 1007.2 hPa | 0 mm | - | - | - |
| 1787828150 | 30.56° C | 30% | 1007.3 hPa | 0 mm | - | - | - |
| 1787827978 | 30.56° C | 29% | 1007.3 hPa | 0 mm | - | - | - |
| 1787827551 | 29.44° C | 31% | 1007.4 hPa | 0 mm | - | - | - |
| 1787827074 | 29.44° C | 31% | 1007.5 hPa | 0 mm | - | - | - |
| 1787826952 | 30° C | 31% | 1007.5 hPa | 0 mm | - | - | - |
| 1787826353 | 29.44° C | 31% | 1007.6 hPa | 0 mm | - | - | - |
| 1787826181 | 29.44° C | 32% | 1007.6 hPa | 0 mm | - | - | - |
| 1787825755 | 29.44° C | 32% | 1007.6 hPa | 0 mm | - | - | - |
| 1787825278 | 28.89° C | 32% | 1007.6 hPa | 0 mm | - | - | - |
| 1787825155 | 28.89° C | 33% | 1007.6 hPa | 0 mm | - | - | - |
* Rain latest hour (hover to see other rain measurements)
** Current wind speed in m/s (hover to see current wind gust speed)